timestamp,wind_dir_avg,wind_spd_avg,wind_spd_max_dir,wind_spd_gust,battery_voltage,lat,long
2022-02-03 00:04:00+00:00,220.0,9.52,209.0,12.31,12.49,47.59359,-54.27349
2022-02-03 00:14:00+00:00,227.0,8.57,225.0,10.59,12.41,47.59359,-54.27349
2022-02-03 00:24:00+00:00,221.0,10.22,220.0,11.63,12.41,47.59359,-54.27349
2022-02-03 00:34:00+00:00,224.0,8.87,227.0,11.18,12.41,47.59359,-54.27349
2022-02-03 00:44:00+00:00,239.0,9.41,237.0,10.39,12.41,47.59359,-54.27349
2022-02-03 00:54:00+00:00,223.0,8.03,226.0,10.36,12.41,47.59359,-54.27349
2022-02-03 01:04:00+00:00,229.0,8.21,235.0,10.2,12.41,47.59359,-54.27349
2022-02-03 01:14:01+00:00,228.0,8.55,237.0,10.28,12.41,47.59359,-54.27349
2022-02-03 01:24:01+00:00,227.0,8.4,230.0,10.07,12.41,47.59359,-54.27349
2022-02-03 01:34:01+00:00,245.0,10.26,245.0,11.78,12.41,47.59359,-54.27349
2022-02-03 01:44:01+00:00,229.0,9.43,232.0,11.56,12.41,47.59359,-54.27349
2022-02-03 01:54:01+00:00,237.0,10.65,234.0,12.6,12.41,47.59359,-54.27349
2022-02-03 02:04:01+00:00,229.0,8.55,231.0,11.58,12.41,47.59359,-54.27349
2022-02-03 02:14:00+00:00,222.0,9.01,217.0,11.49,12.41,47.59359,-54.27349
2022-02-03 02:24:00+00:00,229.0,9.08,232.0,10.76,12.41,47.59359,-54.27349
2022-02-03 02:34:00+00:00,222.0,9.08,224.0,10.74,12.41,47.59359,-54.27349
2022-02-03 02:44:00+00:00,216.0,11.01,222.0,13.43,12.41,47.59359,-54.27349
2022-02-03 02:54:00+00:00,231.0,10.15,233.0,11.8,12.41,47.59359,-54.27349
2022-02-03 03:04:00+00:00,230.0,8.84,224.0,11.29,12.41,47.59359,-54.27349
2022-02-03 03:14:01+00:00,230.0,8.49,231.0,9.74,12.33,47.59359,-54.27349
2022-02-03 03:24:01+00:00,240.0,9.75,241.0,11.72,12.33,47.59359,-54.27349
2022-02-03 03:34:01+00:00,234.0,10.84,234.0,12.41,12.33,47.59359,-54.27349
2022-02-03 03:44:01+00:00,245.0,10.15,253.0,11.56,12.33,47.59359,-54.27349
2022-02-03 03:54:01+00:00,232.0,9.0,231.0,10.73,12.33,47.59359,-54.27349
2022-02-03 04:04:01+00:00,232.0,9.09,245.0,11.23,12.33,47.59359,-54.27349
2022-02-03 04:14:00+00:00,237.0,11.13,235.0,12.39,12.33,47.59359,-54.27349
2022-02-03 04:24:00+00:00,237.0,10.46,234.0,12.4,12.33,47.59359,-54.27349
2022-02-03 04:34:00+00:00,232.0,10.04,233.0,11.27,12.33,47.59359,-54.27349
2022-02-03 04:44:00+00:00,236.0,11.01,236.0,13.17,12.33,47.59359,-54.27349
2022-02-03 04:54:00+00:00,234.0,10.88,232.0,12.0,12.33,47.59359,-54.27349
2022-02-03 05:04:00+00:00,234.0,10.12,238.0,11.89,12.33,47.59359,-54.27349
2022-02-03 05:14:01+00:00,237.0,10.47,235.0,11.53,12.33,47.59359,-54.27349
2022-02-03 05:24:01+00:00,242.0,11.26,239.0,12.49,12.33,47.59359,-54.27349
2022-02-03 05:34:01+00:00,242.0,10.63,244.0,13.15,12.33,47.59359,-54.27349
2022-02-03 05:44:01+00:00,242.0,10.44,244.0,11.91,12.33,47.59359,-54.27349
2022-02-03 05:54:01+00:00,242.0,10.72,237.0,11.67,12.33,47.59359,-54.27349
2022-02-03 06:04:01+00:00,247.0,11.32,244.0,13.63,12.33,47.59359,-54.27349
2022-02-03 06:14:01+00:00,243.0,12.07,235.0,13.55,12.25,47.59359,-54.27349
2022-02-03 06:24:01+00:00,238.0,10.92,236.0,12.76,12.25,47.59359,-54.27349
2022-02-03 06:34:01+00:00,245.0,10.99,250.0,12.51,12.25,47.59359,-54.27349
2022-02-03 06:44:01+00:00,251.0,11.87,256.0,13.68,12.25,47.59359,-54.27349
2022-02-03 06:54:01+00:00,248.0,12.6,252.0,15.04,12.25,47.59359,-54.27349
2022-02-03 07:04:01+00:00,248.0,10.91,249.0,12.39,12.25,47.59359,-54.27349
2022-02-03 07:14:00+00:00,259.0,10.73,260.0,12.24,12.25,47.59359,-54.27349
2022-02-03 07:24:00+00:00,250.0,10.76,247.0,12.1,12.25,47.59359,-54.27349
2022-02-03 07:34:00+00:00,245.0,11.36,243.0,12.78,12.25,47.59359,-54.27349
2022-02-03 07:44:00+00:00,248.0,10.56,251.0,11.46,12.25,47.59359,-54.27349
2022-02-03 07:54:00+00:00,248.0,11.71,240.0,13.06,12.25,47.59359,-54.27349
2022-02-03 08:04:00+00:00,245.0,11.84,251.0,16.04,12.25,47.59359,-54.27349
2022-02-03 08:14:01+00:00,236.0,11.53,240.0,12.95,12.25,47.59359,-54.27349
2022-02-03 08:24:01+00:00,248.0,10.75,249.0,12.23,12.25,47.59359,-54.27349
2022-02-03 08:34:01+00:00,250.0,10.6,253.0,11.78,12.25,47.59359,-54.27349
2022-02-03 08:44:01+00:00,246.0,11.65,243.0,13.67,12.25,47.59359,-54.27349
2022-02-03 08:54:01+00:00,244.0,11.03,240.0,12.79,12.25,47.59359,-54.27349
2022-02-03 09:04:01+00:00,249.0,11.71,246.0,13.37,12.25,47.59359,-54.27349
2022-02-03 09:14:01+00:00,249.0,10.8,248.0,11.8,12.25,47.59359,-54.27349
2022-02-03 09:24:01+00:00,246.0,10.63,237.0,12.43,12.25,47.59359,-54.27349
2022-02-03 09:34:01+00:00,250.0,11.16,251.0,12.72,12.25,47.59359,-54.27349
2022-02-03 09:44:01+00:00,249.0,10.75,249.0,11.77,12.25,47.59359,-54.27349
2022-02-03 09:54:01+00:00,243.0,10.93,245.0,13.0,12.25,47.59359,-54.27349
2022-02-03 10:04:01+00:00,248.0,10.61,254.0,11.77,12.25,47.59359,-54.27349
2022-02-03 10:14:00+00:00,235.0,10.69,231.0,12.23,12.25,47.59359,-54.27349
2022-02-03 10:24:00+00:00,245.0,11.66,242.0,13.27,12.25,47.59359,-54.27349
2022-02-03 10:34:00+00:00,242.0,11.32,242.0,12.31,12.25,47.59359,-54.27349
2022-02-03 10:44:00+00:00,232.0,10.54,232.0,12.03,12.25,47.59359,-54.27349
2022-02-03 10:54:00+00:00,249.0,11.94,250.0,12.75,12.25,47.59359,-54.27349
2022-02-03 11:04:00+00:00,233.0,12.06,233.0,13.63,12.25,47.59359,-54.27349
2022-02-03 11:14:00+00:00,236.0,10.95,239.0,12.41,12.25,47.59359,-54.27349
2022-02-03 11:24:00+00:00,238.0,11.8,236.0,13.38,12.25,47.59359,-54.27349
2022-02-03 11:34:00+00:00,238.0,11.78,236.0,13.21,12.25,47.59359,-54.27349
2022-02-03 11:44:00+00:00,224.0,9.05,224.0,10.94,12.25,47.59359,-54.27349
2022-02-03 11:54:00+00:00,232.0,9.85,234.0,12.77,12.25,47.59359,-54.27349
2022-02-03 12:04:00+00:00,229.0,9.33,225.0,12.74,12.25,47.59359,-54.27349
2022-02-03 12:14:00+00:00,236.0,12.2,235.0,13.63,12.41,47.59359,-54.27349
2022-02-03 12:24:00+00:00,226.0,11.18,216.0,12.87,12.41,47.59359,-54.27349
2022-02-03 12:34:00+00:00,239.0,10.79,237.0,12.3,12.41,47.59359,-54.27349
2022-02-03 12:44:00+00:00,229.0,10.32,216.0,12.74,12.41,47.59359,-54.27349
2022-02-03 12:54:00+00:00,229.0,9.35,233.0,11.84,12.41,47.59359,-54.27349
2022-02-03 13:04:00+00:00,225.0,10.19,217.0,11.94,12.41,47.59359,-54.27349
2022-02-03 13:14:00+00:00,224.0,11.97,226.0,14.04,12.73,47.59359,-54.27349
2022-02-03 13:24:00+00:00,228.0,10.14,231.0,11.72,12.73,47.59359,-54.27349
2022-02-03 13:34:00+00:00,227.0,11.95,217.0,15.21,12.73,47.59359,-54.27349
2022-02-03 13:44:00+00:00,223.0,12.72,224.0,14.54,12.73,47.59359,-54.27349
2022-02-03 13:54:00+00:00,221.0,11.79,228.0,13.84,12.73,47.59359,-54.27349
2022-02-03 14:04:00+00:00,227.0,10.56,225.0,12.58,12.73,47.59359,-54.27349
2022-02-03 14:14:00+00:00,229.0,10.7,219.0,12.49,12.89,47.59359,-54.27349
2022-02-03 14:24:00+00:00,225.0,10.26,223.0,12.34,12.89,47.59359,-54.27349
2022-02-03 14:34:00+00:00,227.0,10.37,229.0,12.11,12.89,47.59359,-54.27349
2022-02-03 14:44:00+00:00,228.0,10.27,229.0,12.0,12.89,47.59359,-54.27349
2022-02-03 14:54:00+00:00,222.0,10.42,221.0,13.06,12.89,47.59359,-54.27349
2022-02-03 15:04:00+00:00,220.0,11.8,217.0,13.89,12.89,47.59359,-54.27349
2022-02-03 15:14:01+00:00,216.0,12.81,222.0,14.75,13.44,47.59359,-54.27349
2022-02-03 15:24:01+00:00,214.0,13.41,215.0,15.06,13.44,47.59359,-54.27349
2022-02-03 15:34:01+00:00,219.0,12.07,215.0,13.61,13.44,47.59359,-54.27349
2022-02-03 15:44:01+00:00,216.0,12.91,218.0,15.26,13.44,47.59359,-54.27349
2022-02-03 15:54:01+00:00,223.0,12.02,229.0,14.55,13.44,47.59359,-54.27349
2022-02-03 16:04:01+00:00,215.0,13.4,209.0,15.53,13.44,47.59359,-54.27349
2022-02-03 16:14:01+00:00,220.0,12.08,227.0,13.44,13.29,47.59359,-54.27349
2022-02-03 16:24:01+00:00,220.0,11.56,227.0,15.03,13.29,47.59359,-54.27349
2022-02-03 16:34:01+00:00,217.0,12.86,216.0,15.5,13.29,47.59359,-54.27349
2022-02-03 16:44:01+00:00,211.0,14.35,215.0,17.03,13.29,47.59359,-54.27349
2022-02-03 16:54:01+00:00,219.0,12.3,212.0,14.51,13.29,47.59359,-54.27349
2022-02-03 17:04:01+00:00,218.0,13.02,225.0,15.26,13.29,47.59359,-54.27349
2022-02-03 17:14:00+00:00,224.0,12.72,229.0,15.25,12.89,47.59359,-54.27349
2022-02-03 17:24:00+00:00,223.0,14.31,228.0,17.72,12.89,47.59359,-54.27349
2022-02-03 17:34:00+00:00,219.0,13.17,231.0,16.75,12.89,47.59359,-54.27349
2022-02-03 17:44:00+00:00,223.0,11.11,233.0,13.5,12.89,47.59359,-54.27349
2022-02-03 17:54:00+00:00,222.0,12.2,230.0,17.4,12.89,47.59359,-54.27349
2022-02-03 18:04:00+00:00,225.0,10.89,230.0,13.76,12.89,47.59359,-54.27349
2022-02-03 18:14:01+00:00,223.0,14.07,233.0,17.3,12.89,47.59359,-54.27349
2022-02-03 18:24:01+00:00,224.0,12.6,232.0,15.61,12.89,47.59359,-54.27349
2022-02-03 18:34:01+00:00,225.0,10.91,236.0,14.02,12.89,47.59359,-54.27349
2022-02-03 18:44:01+00:00,221.0,11.37,232.0,14.65,12.89,47.59359,-54.27349
2022-02-03 18:54:01+00:00,224.0,11.1,234.0,13.36,12.89,47.59359,-54.27349
2022-02-03 19:04:01+00:00,223.0,12.29,224.0,14.2,12.89,47.59359,-54.27349
2022-02-03 19:14:01+00:00,216.0,12.22,208.0,14.67,12.65,47.59359,-54.27349
2022-02-03 19:24:01+00:00,217.0,12.65,213.0,14.21,12.65,47.59359,-54.27349
2022-02-03 19:34:01+00:00,218.0,13.31,212.0,16.04,12.65,47.59359,-54.27349
2022-02-03 19:44:01+00:00,217.0,12.81,215.0,14.19,12.65,47.59359,-54.27349
2022-02-03 19:54:01+00:00,216.0,13.02,211.0,14.73,12.65,47.59359,-54.27349
2022-02-03 20:04:01+00:00,223.0,12.24,221.0,14.33,12.65,47.59359,-54.27349
2022-02-03 20:14:01+00:00,216.0,12.85,218.0,14.34,12.49,47.59359,-54.27349
2022-02-03 20:24:01+00:00,214.0,13.73,211.0,15.8,12.49,47.59359,-54.27349
2022-02-03 20:34:01+00:00,218.0,12.9,211.0,16.95,12.49,47.59359,-54.27349
2022-02-03 20:44:01+00:00,220.0,12.34,219.0,14.16,12.49,47.59359,-54.27349
2022-02-03 20:54:01+00:00,217.0,13.01,212.0,16.18,12.49,47.59359,-54.27349
2022-02-03 21:04:01+00:00,219.0,12.36,217.0,14.02,12.49,47.59359,-54.27349
2022-02-03 21:14:01+00:00,216.0,12.95,215.0,14.23,12.41,47.59359,-54.27349
2022-02-03 21:24:01+00:00,212.0,13.8,211.0,15.14,12.41,47.59359,-54.27349
2022-02-03 21:34:01+00:00,214.0,13.24,208.0,15.25,12.41,47.59359,-54.27349
2022-02-03 21:44:01+00:00,213.0,13.98,210.0,16.85,12.41,47.59359,-54.27349
2022-02-03 21:54:01+00:00,220.0,12.16,215.0,14.38,12.41,47.59359,-54.27349
2022-02-03 22:04:01+00:00,215.0,13.07,212.0,15.28,12.41,47.59359,-54.27349
2022-02-03 22:14:01+00:00,217.0,12.61,212.0,14.32,12.41,47.59359,-54.27349
2022-02-03 22:24:01+00:00,220.0,12.02,231.0,15.12,12.41,47.59359,-54.27349
2022-02-03 22:34:01+00:00,218.0,12.32,215.0,14.15,12.41,47.59359,-54.27349
2022-02-03 22:44:01+00:00,214.0,13.65,210.0,15.46,12.41,47.59359,-54.27349
2022-02-03 22:54:01+00:00,211.0,15.02,211.0,17.7,12.41,47.59359,-54.27349
2022-02-03 23:04:01+00:00,208.0,14.92,210.0,17.97,12.41,47.59359,-54.27349
2022-02-03 23:14:01+00:00,208.0,16.34,205.0,20.53,12.41,47.59359,-54.27349
2022-02-03 23:24:01+00:00,205.0,17.19,204.0,19.86,12.41,47.59359,-54.27349
2022-02-03 23:34:01+00:00,210.0,15.19,207.0,17.41,12.41,47.59359,-54.27349
2022-02-03 23:44:01+00:00,210.0,14.19,213.0,16.81,12.41,47.59359,-54.27349
2022-02-03 23:54:01+00:00,213.0,13.35,210.0,15.63,12.41,47.59359,-54.27349
